• In Moldova, Republic
  • List of Countries
  • For 7 days
  • Water Temperature
  • Satellite Maps
  • Weather Map
  • Weather Widgets
  • user-avatar
    Login

    Hourly Weather Saurimo

    Today, 26 June, Monday

    Time Temperature Precipitation Wind Pressure Humidity
    00:00 +19°C° 0 mm 2 mps 670 mmHg 54%
    01:00 +18°C° 0 mm 2 mps 670 mmHg 54%
    02:00 +18°C° 0 mm 2 mps 670 mmHg 54%
    03:00 +18°C° 0 mm 2 mps 670 mmHg 54%
    04:00 +18°C° 0 mm 2 mps 670 mmHg 53%
    05:00 +18°C° 0 mm 2 mps 671 mmHg 52%
    06:00 +19°C° 0 mm 2 mps 671 mmHg 51%
    07:00 +19°C° 0 mm 2 mps 672 mmHg 49%
    08:00 +23°C° 0 mm 2 mps 672 mmHg 44%
    09:00 +25°C° 0 mm 2 mps 673 mmHg 38%
    10:00 +28°C° 0 mm 3 mps 673 mmHg 33%
    11:00 +30°C° 0 mm 2 mps 673 mmHg 29%
    12:00 +31°C° 0 mm 2 mps 673 mmHg 25%
    13:00 +34°C° 0 mm 2 mps 673 mmHg 21%
    14:00 +34°C° 0 mm 2 mps 672 mmHg 22%
    15:00 +32°C° 0 mm 2 mps 672 mmHg 22%
    16:00 +32°C° 0 mm 2 mps 671 mmHg 22%
    17:00 +29°C° 0 mm 2 mps 671 mmHg 28%
    18:00 +26°C° 0 mm 2 mps 671 mmHg 33%
    19:00 +23°C° 0 mm 2 mps 670 mmHg 39%
    20:00 +21°C° 0 mm 2 mps 671 mmHg 40%
    21:00 +20°C° 0 mm 2 mps 671 mmHg 41%
    22:00 +20°C° 0 mm 2 mps 671 mmHg 42%
    23:00 +19°C° 0 mm 2 mps 671 mmHg 44%

    Tomorrow, 27 June, Tuesday

    Time Temperature Precipitation Wind Pressure Humidity
    00:00 +19°C° 0 mm 2 mps 671 mmHg 46%
    01:00 +18°C° 0 mm 2 mps 671 mmHg 47%
    02:00 +18°C° 0 mm 2 mps 671 mmHg 49%
    03:00 +17°C° 0 mm 2 mps 671 mmHg 51%
    04:00 +17°C° 0 mm 2 mps 671 mmHg 52%
    05:00 +17°C° 0 mm 2 mps 671 mmHg 52%
    06:00 +17°C° 0 mm 3 mps 672 mmHg 52%
    07:00 +17°C° 0 mm 3 mps 672 mmHg 51%
    08:00 +21°C° 0 mm 3 mps 673 mmHg 43%
    09:00 +25°C° 0 mm 4 mps 674 mmHg 35%
    10:00 +28°C° 0 mm 4 mps 674 mmHg 26%
    11:00 +30°C° 0 mm 4 mps 674 mmHg 24%
    12:00 +31°C° 0 mm 3 mps 673 mmHg 21%
    13:00 +33°C° 0 mm 3 mps 673 mmHg 19%
    14:00 +33°C° 0 mm 3 mps 672 mmHg 19%
    15:00 +32°C° 0 mm 2 mps 672 mmHg 19%
    16:00 +31°C° 0 mm 2 mps 671 mmHg 19%
    17:00 +28°C° 0 mm 2 mps 671 mmHg 24%
    18:00 +24°C° 0 mm 2 mps 671 mmHg 28%
    19:00 +20°C° 0 mm 2 mps 670 mmHg 33%
    20:00 +19°C° 0 mm 2 mps 671 mmHg 34%
    21:00 +19°C° 0 mm 2 mps 671 mmHg 34%
    22:00 +18°C° 0 mm 2 mps 672 mmHg 35%
    23:00 +18°C° 0 mm 2 mps 671 mmHg 37%

    Day after tomorrow, 28 June, Wednesday

    Time Temperature Precipitation Wind Pressure Humidity
    00:00 +17°C° 0 mm 2 mps 671 mmHg 39%
    01:00 +16°C° 0 mm 2 mps 671 mmHg 41%
    02:00 +16°C° 0 mm 2 mps 670 mmHg 43%
    03:00 +15°C° 0 mm 2 mps 670 mmHg 46%
    04:00 +14°C° 0 mm 2 mps 670 mmHg 48%
    05:00 +15°C° 0 mm 2 mps 671 mmHg 48%
    06:00 +15°C° 0 mm 2 mps 671 mmHg 48%
    07:00 +16°C° 0 mm 2 mps 672 mmHg 48%
    08:00 +19°C° 0 mm 3 mps 673 mmHg 40%
    09:00 +24°C° 0 mm 3 mps 674 mmHg 31%
    10:00 +28°C° 0 mm 4 mps 674 mmHg 23%
    11:00 +29°C° 0 mm 3 mps 674 mmHg 20%
    12:00 +30°C° 0 mm 3 mps 673 mmHg 17%
    13:00 +33°C° 0 mm 3 mps 673 mmHg 14%
    14:00 +31°C° 0 mm 3 mps 672 mmHg 14%
    15:00 +31°C° 0 mm 3 mps 672 mmHg 14%
    16:00 +31°C° 0 mm 2 mps 671 mmHg 15%
    17:00 +27°C° 0 mm 2 mps 671 mmHg 19%
    18:00 +24°C° 0 mm 2 mps 670 mmHg 24%
    19:00 +19°C° 0 mm 2 mps 670 mmHg 29%
    20:00 +19°C° 0 mm 2 mps 670 mmHg 30%
    21:00 +18°C° 0 mm 2 mps 671 mmHg 31%
    22:00 +17°C° 0 mm 2 mps 671 mmHg 33%
    23:00 +17°C° 0 mm 2 mps 671 mmHg 34%

    29 June, Thursday

    Time Temperature Precipitation Wind Pressure Humidity
    00:00 +16°C° 0 mm 2 mps 670 mmHg 36%
    01:00 +15°C° 0 mm 2 mps 670 mmHg 38%
    02:00 +15°C° 0 mm 2 mps 670 mmHg 40%
    03:00 +14°C° 0 mm 2 mps 670 mmHg 42%
    04:00 +14°C° 0 mm 2 mps 670 mmHg 44%
    05:00 +14°C° 0 mm 2 mps 671 mmHg 45%
    06:00 +15°C° 0 mm 2 mps 671 mmHg 46%
    07:00 +15°C° 0 mm 2 mps 672 mmHg 47%
    08:00 +19°C° 0 mm 3 mps 673 mmHg 40%
    09:00 +24°C° 0 mm 3 mps 674 mmHg 33%
    10:00 +28°C° 0 mm 4 mps 674 mmHg 26%
    11:00 +29°C° 0 mm 3 mps 674 mmHg 23%
    12:00 +31°C° 0 mm 3 mps 673 mmHg 20%
    13:00 +32°C° 0 mm 2 mps 673 mmHg 16%
    14:00 +32°C° 0 mm 2 mps 672 mmHg 17%
    15:00 +32°C° 0 mm 2 mps 672 mmHg 17%
    16:00 +31°C° 0 mm 1 mps 671 mmHg 17%
    17:00 +28°C° 0 mm 1 mps 671 mmHg 23%
    18:00 +24°C° 0 mm 2 mps 671 mmHg 28%
    19:00 +20°C° 0 mm 2 mps 671 mmHg 33%
    20:00 +19°C° 0 mm 2 mps 671 mmHg 35%
    21:00 +19°C° 0 mm 2 mps 671 mmHg 37%
    22:00 +18°C° 0 mm 2 mps 672 mmHg 39%
    23:00 +18°C° 0 mm 2 mps 671 mmHg 40%

    30 June, Friday

    Time Temperature Precipitation Wind Pressure Humidity
    00:00 +17°C° 0 mm 2 mps 671 mmHg 41%
    01:00 +16°C° 0 mm 2 mps 671 mmHg 42%
    02:00 +16°C° 0 mm 2 mps 671 mmHg 43%
    03:00 +16°C° 0 mm 2 mps 671 mmHg 43%
    04:00 +15°C° 0 mm 2 mps 671 mmHg 44%
    05:00 +16°C° 0 mm 3 mps 672 mmHg 45%
    06:00 +16°C° 0 mm 3 mps 672 mmHg 46%
    07:00 +16°C° 0 mm 3 mps 673 mmHg 47%
    08:00 +20°C° 0 mm 3 mps 673 mmHg 41%
    09:00 +24°C° 0 mm 3 mps 674 mmHg 35%
    10:00 +28°C° 0 mm 4 mps 675 mmHg 29%
    11:00 +29°C° 0 mm 3 mps 674 mmHg 25%
    12:00 +31°C° 0 mm 3 mps 673 mmHg 22%
    13:00 +32°C° 0 mm 2 mps 673 mmHg 18%
    14:00 +32°C° 0 mm 2 mps 672 mmHg 18%
    15:00 +32°C° 0 mm 2 mps 672 mmHg 19%
    16:00 +31°C° 0 mm 2 mps 671 mmHg 19%
    17:00 +28°C° 0 mm 2 mps 671 mmHg 24%
    18:00 +25°C° 0 mm 2 mps 671 mmHg 30%
    19:00 +21°C° 0 mm 2 mps 671 mmHg 35%
    20:00 +20°C° 0 mm 2 mps 671 mmHg 37%
    21:00 +19°C° 0 mm 2 mps 671 mmHg 39%
    22:00 +18°C° 0 mm 2 mps 671 mmHg 41%
    23:00 +18°C° 0 mm 2 mps 671 mmHg 42%

    1 July, Saturday

    Time Temperature Precipitation Wind Pressure Humidity
    00:00 +17°C° 0 mm 2 mps 671 mmHg 44%
    01:00 +17°C° 0 mm 2 mps 671 mmHg 45%
    02:00 +16°C° 0 mm 2 mps 671 mmHg 46%
    03:00 +16°C° 0 mm 2 mps 671 mmHg 46%
    04:00 +16°C° 0 mm 2 mps 671 mmHg 47%
    05:00 +16°C° 0 mm 2 mps 671 mmHg 47%
    06:00 +16°C° 0 mm 3 mps 671 mmHg 47%
    07:00 +17°C° 0 mm 3 mps 672 mmHg 47%
    08:00 +20°C° 0 mm 3 mps 673 mmHg 40%
    09:00 +25°C° 0 mm 3 mps 673 mmHg 34%
    10:00 +28°C° 0 mm 4 mps 674 mmHg 27%
    11:00 +29°C° 0 mm 3 mps 673 mmHg 24%
    12:00 +31°C° 0 mm 3 mps 673 mmHg 21%
    13:00 +32°C° 0 mm 2 mps 672 mmHg 18%
    14:00 +32°C° 0 mm 2 mps 672 mmHg 19%
    15:00 +32°C° 0 mm 2 mps 671 mmHg 19%
    16:00 +31°C° 0 mm 2 mps 671 mmHg 19%
    17:00 +28°C° 0 mm 2 mps 671 mmHg 25%
    18:00 +25°C° 0 mm 2 mps 671 mmHg 30%
    19:00 +20°C° 0 mm 2 mps 670 mmHg 36%
    20:00 +20°C° 0 mm 2 mps 671 mmHg 37%
    21:00 +19°C° 0 mm 2 mps 671 mmHg 39%
    22:00 +19°C° 0 mm 2 mps 671 mmHg 40%
    23:00 +18°C° 0 mm 2 mps 671 mmHg 41%
    Show more